| time (UTC) | temp C | wind direction | speed KPH | gust KPH | rain 1hr cm | rain 24hr cm | rain mn cm | humidity % | barometer mb |
| 20260503072339 | -1 | 310 | 4.8 | 16.1 | 0.00 | 0.10 | 0.00 | 73 | 1005.8 |
| 20260503071832 | -1 | 297 | 6.4 | 16.1 | 0.00 | 0.10 | 0.00 | 74 | 1005.8 |
| 20260503071346 | -1 | 12 | 6.4 | 16.1 | 0.00 | 0.10 | 0.00 | 73 | 1005.7 |
| 20260503070837 | -1 | 302 | 4.8 | 16.1 | 0.00 | 0.10 | 0.00 | 73 | 1005.7 |
| 20260503070331 | -1 | 295 | 3.2 | 14.5 | 0.00 | 0.10 | 0.00 | 76 | 1005.7 |
| 20260503060337 | 0 | 308 | 4.8 | 16.1 | 0.00 | 0.20 | 0.00 | 77 | 1005.5 |
| 20260503054832 | 0 | 281 | 6.4 | 14.5 | 0.00 | 0.20 | 0.00 | 79 | 1005.4 |
| 20260503054325 | 0 | 320 | 6.4 | 14.5 | 0.00 | 0.20 | 0.00 | 81 | 1005.4 |
| 20260503053857 | -1 | 332 | 6.4 | 14.5 | 0.00 | 0.20 | 0.00 | 81 | 1005.5 |
| 20260503053330 | -1 | 324 | 3.2 | 11.3 | 0.00 | 0.20 | 0.00 | 82 | 1005.6 |
| 20260503052839 | -1 | 298 | 4.8 | 17.7 | 0.00 | 0.20 | 0.00 | 82 | 1005.6 |
| 20260503052333 | -1 | 303 | 8.0 | 20.9 | 0.00 | 0.20 | 0.00 | 81 | 1005.5 |
| 20260503051822 | -1 | 319 | 8.0 | 20.9 | 0.00 | 0.20 | 0.00 | 81 | 1005.5 |
| 20260503051337 | -1 | 291 | 6.4 | 12.9 | 0.00 | 0.20 | 0.00 | 81 | 1005.5 |
| 20260503050848 | -2 | 272 | 4.8 | 9.7 | 0.00 | 0.20 | 0.00 | 80 | 1005.5 |
| 20260503050321 | -2 | 297 | 1.6 | 9.7 | 0.00 | 0.20 | 0.00 | 81 | 1005.4 |
| 20260503045833 | -2 | 296 | 4.8 | 9.7 | 0.00 | 0.20 | 0.00 | 82 | 1005.4 |
| 20260503045324 | -2 | 326 | 3.2 | 6.4 | 0.00 | 0.20 | 0.00 | 82 | 1005.4 |
| 20260503044836 | -2 | 326 | 1.6 | 4.8 | 0.00 | 0.20 | 0.00 | 82 | 1005.4 |
| 20260503044327 | -2 | 330 | 1.6 | 8.0 | 0.00 | 0.20 | 0.00 | 84 | 1005.3 |
| 20260503043838 | -2 | 330 | 1.6 | 8.0 | 0.00 | 0.20 | 0.00 | 84 | 1005.3 |
| 20260503043330 | -2 | 323 | 0.0 | 6.4 | 0.00 | 0.20 | 0.00 | 84 | 1005.3 |
| 20260503042826 | -2 | 322 | 1.6 | 6.4 | 0.00 | 0.30 | 0.00 | 84 | 1005.2 |
| 20260503042338 | -2 | 325 | 1.6 | 6.4 | 0.00 | 0.30 | 0.00 | 85 | 1005.4 |
| 20260503041828 | -2 | 325 | 3.2 | 6.4 | 0.00 | 0.30 | 0.00 | 84 | 1005.4 |
| 20260503041321 | -2 | 316 | 0.0 | 3.2 | 0.00 | 0.30 | 0.00 | 84 | 1005.4 |
| 20260503040835 | -2 | 316 | 0.0 | 4.8 | 0.00 | 0.30 | 0.00 | 84 | 1005.4 |
| 20260503040327 | -2 | 316 | 0.0 | 4.8 | 0.00 | 0.30 | 0.00 | 85 | 1005.4 |
| 20260503035836 | -2 | 316 | 0.0 | 6.4 | 0.00 | 0.30 | 0.00 | 85 | 1005.4 |
| 20260503035326 | -2 | 316 | 0.0 | 9.7 | 0.00 | 0.30 | 0.00 | 84 | 1005.4 |
| 20260503034821 | -2 | 339 | 0.0 | 9.7 | 0.00 | 0.30 | 0.00 | 84 | 1005.3 |
| 20260503034332 | -2 | 291 | 1.6 | 6.4 | 0.00 | 0.30 | 0.00 | 84 | 1005.4 |
| 20260503033837 | -2 | 301 | 3.2 | 6.4 | 0.00 | 0.30 | 0.00 | 83 | 1005.3 |
| 20260503033331 | -2 | 300 | 1.6 | 8.0 | 0.00 | 0.30 | 0.00 | 82 | 1005.2 |
| 20260503032823 | -2 | 297 | 3.2 | 6.4 | 0.00 | 0.41 | 0.00 | 82 | 1005.0 |
| 20260503032337 | -2 | 335 | 1.6 | 6.4 | 0.00 | 0.41 | 0.00 | 82 | 1005.0 |
| 20260503031829 | -2 | 336 | 3.2 | 11.3 | 0.00 | 0.41 | 0.00 | 82 | 1005.1 |
| 20260503031339 | -2 | 324 | 6.4 | 11.3 | 0.00 | 0.41 | 0.00 | 82 | 1005.1 |
| 20260503030835 | -2 | 351 | 4.8 | 16.1 | 0.00 | 0.41 | 0.00 | 82 | 1005.2 |
| 20260503030330 | -2 | 6 | 6.4 | 16.1 | 0.00 | 0.41 | 0.00 | 82 | 1005.2 |
| 20260503025837 | -2 | 39 | 0.0 | 9.7 | 0.00 | 0.41 | 0.00 | 83 | 1005.2 |
| 20260503025331 | -2 | 39 | 1.6 | 17.7 | 0.00 | 0.41 | 0.00 | 83 | 1005.2 |
| 20260503024822 | -2 | 349 | 9.7 | 17.7 | 0.00 | 0.41 | 0.00 | 84 | 1005.3 |
| 20260503024336 | -2 | 38 | 3.2 | 14.5 | 0.00 | 0.41 | 0.00 | 84 | 1005.4 |
| 20260503023827 | -2 | 355 | 3.2 | 9.7 | 0.00 | 0.41 | 0.00 | 84 | 1005.5 |
| 20260503023321 | -2 | 323 | 3.2 | 11.3 | 0.00 | 0.41 | 0.00 | 84 | 1005.4 |
| 20260503022837 | -2 | 328 | 6.4 | 16.1 | 0.00 | 0.41 | 0.00 | 83 | 1005.4 |
| 20260503022329 | -2 | 312 | 8.0 | 19.3 | 0.00 | 0.41 | 0.00 | 83 | 1005.4 |
| 20260503021821 | -2 | 305 | 9.7 | 19.3 | 0.00 | 0.41 | 0.00 | 82 | 1005.2 |
| 20260503021332 | -2 | 329 | 11.3 | 19.3 | 0.00 | 0.41 | 0.00 | 83 | 1005.2 |
| 20260503020831 | -2 | 323 | 11.3 | 19.3 | 0.00 | 0.41 | 0.00 | 84 | 1005.1 |
| 20260503020324 | -2 | 291 | 8.0 | 17.7 | 0.00 | 0.41 | 0.00 | 82 | 1005.1 |
| 20260503015836 | -2 | 320 | 8.0 | 17.7 | 0.00 | 0.41 | 0.00 | 81 | 1005.2 |
| 20260503015328 | -1 | 330 | 6.4 | 17.7 | 0.00 | 0.41 | 0.00 | 80 | 1005.2 |
| 20260503014832 | -1 | 332 | 11.3 | 16.1 | 0.00 | 0.41 | 0.00 | 79 | 1005.2 |
| 20260503014328 | -1 | 317 | 6.4 | 19.3 | 0.00 | 0.41 | 0.00 | 79 | 1005.1 |
| 20260503013839 | -1 | 255 | 8.0 | 19.3 | 0.00 | 0.41 | 0.00 | 79 | 1005.2 |
| 20260503013331 | -1 | 321 | 3.2 | 8.0 | 0.00 | 0.41 | 0.00 | 79 | 1005.2 |
| 20260503012822 | -1 | 348 | 3.2 | 8.0 | 0.00 | 0.41 | 0.00 | 78 | 1005.2 |
| 20260503012333 | -1 | 351 | 4.8 | 24.1 | 0.00 | 0.41 | 0.00 | 78 | 1005.2 |
| 20260503011827 | -2 | 81 | 11.3 | 16.1 | 0.00 | 0.41 | 0.00 | 78 | 1005.1 |
| 20260503011338 | -2 | 37 | 8.0 | 19.3 | 0.00 | 0.41 | 0.00 | 79 | 1005.1 |
| 20260503010851 | -2 | 20 | 4.8 | 14.5 | 0.00 | 0.41 | 0.00 | 79 | 1005.1 |
| 20260503010324 | -1 | 12 | 6.4 | 11.3 | 0.00 | 0.41 | 0.00 | 81 | 1005.3 |
| 20260503005837 | -1 | 42 | 0.0 | 14.5 | 0.00 | 0.41 | 0.00 | 82 | 1005.3 |
| 20260503005329 | -1 | 35 | 4.8 | 14.5 | 0.00 | 0.41 | 0.00 | 82 | 1005.4 |
| 20260503004822 | -1 | 4 | 1.6 | 16.1 | 0.00 | 0.41 | 0.00 | 83 | 1005.3 |
| 20260503004331 | -1 | 309 | 3.2 | 22.5 | 0.00 | 0.41 | 0.00 | 83 | 1005.2 |
| 20260503003824 | -1 | 332 | 6.4 | 24.1 | 0.00 | 0.41 | 0.00 | 84 | 1005.0 |
| 20260503003357 | -1 | 326 | 12.9 | 29.0 | 0.00 | 0.41 | 0.00 | 84 | 1005.0 |
| 20260503002828 | -1 | 337 | 14.5 | 29.0 | 0.00 | 0.41 | 0.00 | 85 | 1004.9 |
| 20260503002342 | -1 | 356 | 8.0 | 27.4 | 0.00 | 0.41 | 0.00 | 86 | 1004.9 |
| 20260503001833 | -1 | 291 | 12.9 | 24.1 | 0.00 | 0.41 | 0.00 | 87 | 1004.9 |
| 20260503001328 | -1 | 321 | 14.5 | 24.1 | 0.00 | 0.41 | 0.00 | 88 | 1004.9 |
| 20260503000820 | -1 | 334 | 9.7 | 24.1 | 0.00 | 0.41 | 0.00 | 88 | 1004.9 |
| 20260503000335 | -1 | 324 | 8.0 | 24.1 | 0.00 | 0.41 | 0.00 | 88 | 1004.9 |
| 20260502235825 | -1 | 337 | 6.4 | 17.7 | 0.00 | 0.41 | 0.00 | 89 | 1004.9 |
| 20260502235338 | -1 | 328 | 3.2 | 14.5 | 0.00 | 0.41 | 0.00 | 90 | 1004.8 |
| 20260502234851 | -1 | 350 | 6.4 | 14.5 | 0.00 | 0.41 | 0.00 | 90 | 1004.7 |
| 20260502234341 | -1 | 335 | 6.4 | 14.5 | 0.00 | 0.41 | 0.00 | 90 | 1004.7 |
| 20260502233834 | -1 | 353 | 6.4 | 14.5 | 0.00 | 0.41 | 0.00 | 90 | 1004.6 |
| 20260502233326 | -1 | 319 | 3.2 | 9.7 | 0.00 | 0.41 | 0.00 | 89 | 1004.6 |
| 20260502232819 | -1 | 355 | 3.2 | 8.0 | 0.00 | 0.41 | 0.00 | 88 | 1004.5 |
| 20260502232332 | -1 | 316 | 0.0 | 4.8 | 0.00 | 0.41 | 0.00 | 88 | 1004.5 |
| 20260502231825 | -1 | 316 | 1.6 | 8.0 | 0.00 | 0.41 | 0.00 | 88 | 1004.4 |
| 20260502231337 | -1 | 316 | 1.6 | 14.5 | 0.00 | 0.41 | 0.00 | 88 | 1004.4 |
| 20260502230827 | -1 | 319 | 4.8 | 14.5 | 0.00 | 0.41 | 0.00 | 88 | 1004.3 |
| 20260502230322 | -1 | 350 | 3.2 | 9.7 | 0.00 | 0.41 | 0.00 | 88 | 1004.3 |
| 20260502225832 | -1 | 335 | 3.2 | 11.3 | 0.00 | 0.41 | 0.00 | 88 | 1004.2 |
| 20260502225325 | -1 | 347 | 6.4 | 19.3 | 0.00 | 0.41 | 0.00 | 88 | 1004.2 |
| 20260502224839 | -1 | 339 | 6.4 | 19.3 | 0.00 | 0.41 | 0.00 | 89 | 1004.2 |
| 20260502224331 | -1 | 350 | 8.0 | 16.1 | 0.00 | 0.41 | 0.00 | 90 | 1004.2 |
| 20260502223823 | -1 | 45 | 4.8 | 14.5 | 0.00 | 0.41 | 0.00 | 90 | 1004.2 |
| 20260502223336 | 0 | 39 | 3.2 | 9.7 | 0.00 | 0.41 | 0.00 | 90 | 1004.2 |
| 20260502222828 | 0 | 21 | 3.2 | 14.5 | 0.00 | 0.41 | 0.08 | 90 | 1004.2 |
| 20260502222321 | 0 | 350 | 3.2 | 16.1 | 0.00 | 0.41 | 0.08 | 90 | 1004.2 |
| 20260502221833 | 0 | 12 | 3.2 | 16.1 | 0.00 | 0.41 | 0.08 | 90 | 1004.1 |
| 20260502221325 | 0 | 359 | 0.0 | 6.4 | 0.00 | 0.41 | 0.08 | 90 | 1004.1 |
| 20260502220838 | 0 | 359 | 0.0 | 6.4 | 0.00 | 0.41 | 0.08 | 90 | 1004.1 |
| 20260502220333 | 0 | 351 | 1.6 | 6.4 | 0.00 | 0.41 | 0.08 | 89 | 1004.1 |
| 20260502215824 | 0 | 350 | 3.2 | 9.7 | 0.00 | 0.41 | 0.08 | 89 | 1004.1 |
| 20260502215337 | 0 | 352 | 4.8 | 9.7 | 0.00 | 0.41 | 0.08 | 89 | 1004.1 |
| 20260502214828 | 0 | 333 | 3.2 | 11.3 | 0.00 | 0.41 | 0.08 | 89 | 1004.1 |
| 20260502214320 | 0 | 341 | 6.4 | 17.7 | 0.00 | 0.41 | 0.08 | 89 | 1004.1 |
| 20260502213852 | 0 | 324 | 9.7 | 17.7 | 0.00 | 0.41 | 0.08 | 89 | 1004.1 |
| 20260502213324 | 0 | 332 | 4.8 | 19.3 | 0.00 | 0.41 | 0.08 | 89 | 1004.0 |
| 20260502212836 | 0 | 330 | 9.7 | 19.3 | 0.00 | 0.41 | 0.08 | 89 | 1004.0 |
| 20260502212332 | 0 | 318 | 4.8 | 14.5 | 0.00 | 0.41 | 0.08 | 88 | 1004.0 |
| 20260502211843 | 0 | 322 | 3.2 | 8.0 | 0.00 | 0.41 | 0.08 | 88 | 1004.0 |
| 20260502211334 | 0 | 317 | 3.2 | 14.5 | 0.00 | 0.41 | 0.08 | 87 | 1004.1 |
| 20260502210821 | -1 | 12 | 3.2 | 14.5 | 0.00 | 0.41 | 0.08 | 87 | 1004.1 |
| 20260502210354 | -1 | 355 | 0.0 | 1.6 | 0.00 | 0.41 | 0.08 | 87 | 1004.2 |
| 20260502205824 | -1 | 355 | 0.0 | 4.8 | 0.00 | 0.41 | 0.08 | 87 | 1004.2 |
| 20260502205337 | -1 | 355 | 0.0 | 4.8 | 0.00 | 0.41 | 0.08 | 87 | 1004.2 |
| 20260502204829 | -1 | 353 | 0.0 | 3.2 | 0.00 | 0.41 | 0.08 | 86 | 1004.2 |
| 20260502204321 | -1 | 353 | 0.0 | 1.6 | 0.00 | 0.41 | 0.08 | 86 | 1004.2 |
| 20260502203833 | -1 | 353 | 0.0 | 4.8 | 0.00 | 0.41 | 0.08 | 86 | 1004.2 |
| 20260502203330 | -1 | 353 | 1.6 | 4.8 | 0.00 | 0.41 | 0.08 | 86 | 1004.1 |
| 20260502202822 | -1 | 333 | 0.0 | 6.4 | 0.00 | 0.41 | 0.08 | 86 | 1004.1 |
| 20260502202355 | -1 | 333 | 3.2 | 6.4 | 0.00 | 0.41 | 0.08 | 86 | 1004.2 |
| 20260502201826 | -1 | 320 | 3.2 | 11.3 | 0.00 | 0.41 | 0.08 | 86 | 1004.2 |
| 20260502201336 | -1 | 330 | 6.4 | 14.5 | 0.00 | 0.41 | 0.08 | 86 | 1004.3 |
| 20260502200829 | -1 | 343 | 3.2 | 12.9 | 0.00 | 0.41 | 0.08 | 86 | 1004.3 |
| 20260502200324 | 0 | 326 | 4.8 | 11.3 | 0.00 | 0.41 | 0.08 | 87 | 1004.3 |
| 20260502195834 | 0 | 332 | 6.4 | 11.3 | 0.00 | 0.41 | 0.08 | 88 | 1004.2 |
| 20260502195330 | 0 | 270 | 4.8 | 14.5 | 0.00 | 0.41 | 0.08 | 88 | 1004.2 |
| 20260502194823 | 0 | 330 | 4.8 | 14.5 | 0.00 | 0.41 | 0.08 | 88 | 1004.2 |
| 20260502194333 | 0 | 314 | 6.4 | 9.7 | 0.00 | 0.41 | 0.08 | 88 | 1004.3 |
| 20260502193847 | 0 | 318 | 1.6 | 14.5 | 0.00 | 0.41 | 0.08 | 88 | 1004.4 |
| 20260502193337 | 0 | 320 | 6.4 | 19.3 | 0.00 | 0.41 | 0.08 | 88 | 1004.4 |
| 20260502192829 | 0 | 340 | 9.7 | 19.3 | 0.00 | 0.41 | 0.08 | 89 | 1004.4 |
| 20260502192321 | 0 | 322 | 4.8 | 19.3 | 0.00 | 0.41 | 0.08 | 89 | 1004.4 |
| 20260502191833 | 0 | 323 | 4.8 | 19.3 | 0.00 | 0.41 | 0.08 | 89 | 1004.5 |
| 20260502191326 | 0 | 332 | 9.7 | 19.3 | 0.00 | 0.41 | 0.08 | 89 | 1004.6 |
| 20260502190843 | 0 | 324 | 8.0 | 16.1 | 0.00 | 0.41 | 0.08 | 88 | 1004.7 |
| 20260502190337 | 0 | 329 | 8.0 | 19.3 | 0.00 | 0.41 | 0.08 | 87 | 1004.6 |
| 20260502185827 | 0 | 335 | 4.8 | 11.3 | 0.00 | 0.41 | 0.08 | 86 | 1004.7 |
| 20260502185337 | 0 | 327 | 6.4 | 14.5 | 0.00 | 0.41 | 0.08 | 85 | 1004.6 |
| 20260502184830 | 0 | 308 | 6.4 | 17.7 | 0.00 | 0.41 | 0.08 | 84 | 1004.6 |
| 20260502184320 | 0 | 328 | 11.3 | 17.7 | 0.00 | 0.41 | 0.08 | 84 | 1004.6 |
| 20260502183833 | 0 | 319 | 4.8 | 9.7 | 0.00 | 0.41 | 0.08 | 83 | 1004.5 |
| 20260502183345 | 0 | 324 | 1.6 | 8.0 | 0.00 | 0.41 | 0.08 | 83 | 1004.5 |
| 20260502182834 | 0 | 353 | 4.8 | 9.7 | 0.00 | 0.41 | 0.08 | 83 | 1004.5 |
| 20260502182331 | 0 | 340 | 4.8 | 8.0 | 0.00 | 0.41 | 0.08 | 82 | 1004.5 |
| 20260502181823 | 0 | 319 | 3.2 | 9.7 | 0.00 | 0.41 | 0.08 | 83 | 1004.5 |
| 20260502181333 | 0 | 315 | 4.8 | 12.9 | 0.00 | 0.41 | 0.08 | 83 | 1004.4 |
| 20260502180827 | 0 | 31 | 1.6 | 12.9 | 0.00 | 0.41 | 0.08 | 84 | 1004.4 |
| 20260502180319 | 0 | 341 | 4.8 | 12.9 | 0.00 | 0.41 | 0.08 | 84 | 1004.4 |
| 20260502170324 | 1 | 303 | 1.6 | 8.0 | 0.00 | 0.41 | 0.08 | 80 | 1004.6 |
| 20260502164332 | 1 | 326 | 6.4 | 14.5 | 0.00 | 0.41 | 0.08 | 81 | 1004.6 |
| 20260502163841 | 1 | 316 | 8.0 | 19.3 | 0.00 | 0.41 | 0.08 | 82 | 1004.6 |
| 20260502163333 | 1 | 334 | 11.3 | 20.9 | 0.00 | 0.41 | 0.08 | 82 | 1004.7 |
| 20260502162824 | 1 | 326 | 9.7 | 27.4 | 0.00 | 0.41 | 0.08 | 81 | 1004.8 |
| 20260502162334 | 1 | 326 | 12.9 | 32.2 | 0.00 | 0.41 | 0.08 | 80 | 1004.8 |
| 20260502161828 | 2 | 322 | 16.1 | 32.2 | 0.00 | 0.41 | 0.08 | 77 | 1004.8 |
| 20260502161340 | 2 | 324 | 12.9 | 22.5 | 0.00 | 0.41 | 0.08 | 75 | 1004.7 |
| 20260502160851 | 2 | 316 | 3.2 | 16.1 | 0.00 | 0.41 | 0.08 | 75 | 1004.6 |
| 20260502160327 | 2 | 343 | 4.8 | 16.1 | 0.00 | 0.41 | 0.08 | 76 | 1004.5 |
| 20260502151830 | 2 | 301 | 9.7 | 22.5 | 0.00 | 0.41 | 0.08 | 73 | 1004.7 |
| 20260502151328 | 2 | 295 | 6.4 | 20.9 | 0.00 | 0.41 | 0.08 | 74 | 1004.7 |
| 20260502150819 | 2 | 297 | 12.9 | 20.9 | 0.00 | 0.41 | 0.08 | 71 | 1004.7 |
| 20260502150332 | 2 | 303 | 11.3 | 25.7 | 0.00 | 0.41 | 0.08 | 71 | 1004.7 |
| 20260502130338 | 6 | 325 | 11.3 | 25.7 | 0.00 | 0.41 | 0.08 | 63 | 1004.7 |
| 20260502123332 | 6 | 320 | 9.7 | 25.7 | 0.00 | 0.41 | 0.08 | 65 | 1004.7 |
| 20260502122825 | 6 | 325 | 8.0 | 25.7 | 0.00 | 0.41 | 0.08 | 67 | 1004.6 |
| 20260502122336 | 6 | 297 | 9.7 | 20.9 | 0.00 | 0.41 | 0.08 | 69 | 1004.7 |
| 20260502121828 | 5 | 305 | 9.7 | 24.1 | 0.00 | 0.41 | 0.08 | 73 | 1004.8 |
| 20260502121359 | 4 | 311 | 11.3 | 24.1 | 0.00 | 0.41 | 0.08 | 73 | 1004.7 |
| 20260502120823 | 3 | 286 | 8.0 | 22.5 | 0.00 | 0.41 | 0.08 | 71 | 1004.7 |
| 20260502120320 | 3 | 193 | 9.7 | 22.5 | 0.00 | 0.41 | 0.08 | 71 | 1004.7 |
| 20260502115853 | 4 | 297 | 8.0 | 24.1 | 0.00 | 0.41 | 0.08 | 69 | 1004.6 |
| 20260502115324 | 4 | 308 | 11.3 | 24.1 | 0.00 | 0.41 | 0.08 | 70 | 1004.7 |
| 20260502114837 | 5 | 271 | 11.3 | 24.1 | 0.00 | 0.41 | 0.08 | 71 | 1004.6 |
| 20260502114328 | 4 | 339 | 6.4 | 32.2 | 0.00 | 0.41 | 0.08 | 78 | 1004.6 |
| 20260502113819 | 3 | 286 | 11.3 | 32.2 | 0.00 | 0.41 | 0.08 | 82 | 1004.6 |
| 20260502113333 | 2 | 320 | 11.3 | 25.7 | 0.00 | 0.41 | 0.08 | 80 | 1004.6 |
| 20260502112823 | 2 | 320 | 12.9 | 25.7 | 0.00 | 0.41 | 0.08 | 80 | 1004.6 |
| 20260502112357 | 2 | 328 | 6.4 | 20.9 | 0.00 | 0.41 | 0.08 | 81 | 1004.7 |
| 20260502111848 | 2 | 286 | 11.3 | 25.7 | 0.00 | 0.41 | 0.08 | 81 | 1004.7 |
| 20260502111324 | 2 | 291 | 9.7 | 25.7 | 0.00 | 0.41 | 0.08 | 79 | 1004.6 |
| 20260502110836 | 2 | 271 | 12.9 | 25.7 | 0.00 | 0.41 | 0.08 | 78 | 1004.6 |
| 20260502110351 | 2 | 291 | 11.3 | 27.4 | 0.00 | 0.41 | 0.08 | 79 | 1004.6 |
| 20260502105836 | 2 | 318 | 14.5 | 30.6 | 0.00 | 0.41 | 0.08 | 79 | 1004.6 |
| 20260502105329 | 2 | 310 | 11.3 | 30.6 | 0.00 | 0.41 | 0.08 | 77 | 1004.5 |
| 20260502104820 | 2 | 308 | 11.3 | 22.5 | 0.00 | 0.41 | 0.08 | 76 | 1004.4 |
| 20260502104331 | 2 | 358 | 11.3 | 20.9 | 0.00 | 0.41 | 0.08 | 75 | 1004.4 |
| 20260502103821 | 2 | 341 | 8.0 | 29.0 | 0.00 | 0.41 | 0.08 | 75 | 1004.4 |
| 20260502103334 | 2 | 335 | 14.5 | 30.6 | 0.00 | 0.41 | 0.08 | 73 | 1004.3 |
| 20260502102830 | 3 | 343 | 17.7 | 30.6 | 0.00 | 0.41 | 0.08 | 71 | 1004.3 |
| 20260502102323 | 3 | 326 | 11.3 | 27.4 | 0.00 | 0.41 | 0.08 | 69 | 1004.2 |
| 20260502101834 | 3 | 301 | 16.1 | 27.4 | 0.00 | 0.41 | 0.08 | 71 | 1004.1 |
| 20260502101347 | 3 | 318 | 4.8 | 20.9 | 0.00 | 0.41 | 0.08 | 76 | 1004.1 |
| 20260502100837 | 3 | 337 | 9.7 | 24.1 | 0.00 | 0.41 | 0.08 | 73 | 1004.0 |
| 20260502100351 | 3 | 300 | 8.0 | 29.0 | 0.00 | 0.41 | 0.08 | 72 | 1004.1 |
| 20260502091336 | 3 | 310 | 19.3 | 35.4 | 0.00 | 0.41 | 0.08 | 87 | 1003.5 |
| 20260502090827 | 3 | 318 | 11.3 | 32.2 | 0.00 | 0.41 | 0.08 | 89 | 1003.2 |
| 20260502090319 | 2 | 321 | 9.7 | 25.7 | 0.00 | 0.41 | 0.08 | 91 | 1003.4 |